Time,TemperatureF,DewpointF,PressureIn,WindDirection,WindDirectionDegrees,WindSpeedMPH,WindSpeedGustMPH,Humidity,HourlyPrecipIn,Conditions,Clouds,dailyrainin,SoftwareType,DateUTC
2013-02-07 00:02:00,64.0,58.0,29.95,North,360,0.0,0.0,81,0.00,,,0.01,,2013-02-07 05:02:00,
2013-02-07 00:12:00,64.0,58.0,29.95,North,360,0.0,0.0,81,0.00,,,0.01,,2013-02-07 05:12:00,
2013-02-07 00:21:00,63.0,57.0,29.95,North,360,0.0,0.0,82,0.00,,,0.01,,2013-02-07 05:21:00,
2013-02-07 00:32:00,63.0,57.0,29.95,North,360,0.0,0.0,82,0.00,,,0.01,,2013-02-07 05:32:00,
2013-02-07 00:42:00,63.0,57.0,29.95,North,360,0.0,0.0,82,0.00,,,0.01,,2013-02-07 05:42:00,
2013-02-07 00:52:00,63.0,57.0,29.95,North,360,0.0,0.0,82,0.00,,,0.01,,2013-02-07 05:52:00,
2013-02-07 01:02:00,63.0,58.0,29.95,North,360,0.0,0.0,83,0.00,,,0.01,,2013-02-07 06:02:00,
2013-02-07 01:11:00,63.0,58.0,29.95,North,360,0.0,0.0,83,0.00,,,0.01,,2013-02-07 06:11:00,
2013-02-07 01:22:00,63.0,58.0,29.95,North,360,0.0,0.0,83,0.00,,,0.01,,2013-02-07 06:22:00,
2013-02-07 01:32:00,63.0,58.0,29.95,North,360,0.0,0.0,84,0.00,,,0.00,,2013-02-07 06:32:00,
2013-02-07 01:43:00,63.0,58.0,29.95,North,360,0.0,0.0,84,0.00,,,0.00,,2013-02-07 06:43:00,
2013-02-07 01:52:00,63.0,58.0,29.94,North,360,0.0,0.0,85,0.00,,,0.00,,2013-02-07 06:52:00,
2013-02-07 02:01:00,63.0,59.0,29.94,North,360,0.0,0.0,87,0.00,,,0.00,,2013-02-07 07:01:00,
2013-02-07 02:11:00,64.0,60.0,29.94,North,360,0.0,0.0,88,0.00,,,0.00,,2013-02-07 07:11:00,
2013-02-07 02:22:00,64.0,60.0,29.94,North,360,0.0,0.0,88,0.00,,,0.00,,2013-02-07 07:22:00,
2013-02-07 02:32:00,65.0,61.0,29.94,North,360,0.0,0.0,88,0.00,,,0.00,,2013-02-07 07:32:00,
2013-02-07 02:42:00,65.0,61.0,29.94,North,360,0.0,0.0,88,0.00,,,0.00,,2013-02-07 07:42:00,
2013-02-07 02:52:00,65.0,61.0,29.93,SSE,165,1.0,1.0,88,0.00,,,0.00,,2013-02-07 07:52:00,
2013-02-07 03:01:00,65.0,61.0,29.93,South,170,0.0,1.0,88,0.00,,,0.00,,2013-02-07 08:01:00,
2013-02-07 03:11:00,65.0,61.0,29.93,South,170,0.0,1.0,88,0.00,,,0.00,,2013-02-07 08:11:00,
2013-02-07 03:21:00,65.0,61.0,29.92,North,360,0.0,0.0,88,0.00,,,0.00,,2013-02-07 08:21:00,
2013-02-07 03:32:00,64.0,61.0,29.92,North,360,0.0,0.0,89,0.00,,,0.00,,2013-02-07 08:32:00,
2013-02-07 03:42:00,64.0,61.0,29.92,North,360,0.0,0.0,89,0.00,,,0.00,,2013-02-07 08:42:00,
2013-02-07 03:52:00,64.0,61.0,29.92,SSE,165,1.0,1.0,90,0.00,,,0.00,,2013-02-07 08:52:00,
2013-02-07 04:02:00,64.0,61.0,29.92,North,360,0.0,0.0,91,0.00,,,0.00,,2013-02-07 09:02:00,
2013-02-07 04:11:00,64.0,61.0,29.92,North,360,0.0,0.0,91,0.00,,,0.00,,2013-02-07 09:11:00,
2013-02-07 04:21:00,64.0,61.0,29.92,North,360,0.0,0.0,91,0.00,,,0.00,,2013-02-07 09:21:00,
2013-02-07 04:32:00,64.0,61.0,29.92,North,360,0.0,0.0,91,0.00,,,0.00,,2013-02-07 09:32:00,
2013-02-07 04:42:00,64.0,61.0,29.92,North,360,0.0,0.0,91,0.00,,,0.00,,2013-02-07 09:42:00,
2013-02-07 04:52:00,63.0,61.0,29.92,North,360,0.0,0.0,92,0.00,,,0.00,,2013-02-07 09:52:00,
2013-02-07 05:02:00,63.0,61.0,29.92,North,360,0.0,0.0,92,0.00,,,0.00,,2013-02-07 10:02:00,
2013-02-07 05:11:00,63.0,61.0,29.92,North,360,0.0,0.0,92,0.00,,,0.00,,2013-02-07 10:11:00,
2013-02-07 05:22:00,63.0,61.0,29.93,North,360,0.0,0.0,92,0.00,,,0.00,,2013-02-07 10:22:00,
2013-02-07 05:32:00,63.0,61.0,29.93,North,360,0.0,0.0,92,0.00,,,0.00,,2013-02-07 10:32:00,
2013-02-07 05:42:00,63.0,61.0,29.93,North,360,0.0,0.0,92,0.00,,,0.00,,2013-02-07 10:42:00,
2013-02-07 05:52:00,62.0,60.0,29.92,North,360,0.0,0.0,93,0.00,,,0.00,,2013-02-07 10:52:00,
2013-02-07 06:01:00,62.0,60.0,29.93,North,360,0.0,0.0,93,0.00,,,0.00,,2013-02-07 11:01:00,
2013-02-07 06:11:00,62.0,60.0,29.93,North,360,0.0,0.0,93,0.00,,,0.00,,2013-02-07 11:11:00,
2013-02-07 06:23:00,62.0,60.0,29.93,North,360,0.0,0.0,94,0.00,,,0.00,,2013-02-07 11:23:00,
2013-02-07 06:32:00,62.0,60.0,29.93,North,360,0.0,0.0,94,0.00,,,0.00,,2013-02-07 11:32:00,
2013-02-07 06:44:00,62.0,60.0,29.93,North,360,0.0,0.0,94,0.00,,,0.00,,2013-02-07 11:44:00,
2013-02-07 06:53:00,62.0,61.0,29.93,North,360,0.0,0.0,95,0.00,,,0.00,,2013-02-07 11:53:00,
2013-02-07 07:02:00,63.0,62.0,29.94,North,360,0.0,0.0,95,0.00,,,0.00,,2013-02-07 12:02:00,
2013-02-07 07:11:00,63.0,62.0,29.94,North,360,0.0,0.0,95,0.00,,,0.00,,2013-02-07 12:11:00,
2013-02-07 07:22:00,62.0,61.0,29.94,North,360,0.0,0.0,95,0.01,,,0.01,,2013-02-07 12:22:00,
2013-02-07 07:33:00,62.0,61.0,29.94,North,360,0.0,0.0,95,0.01,,,0.01,,2013-02-07 12:33:00,
2013-02-07 07:42:00,62.0,61.0,29.94,North,360,0.0,0.0,95,0.01,,,0.01,,2013-02-07 12:42:00,
2013-02-07 07:53:00,62.0,61.0,29.94,North,360,0.0,0.0,96,0.01,,,0.01,,2013-02-07 12:53:00,
2013-02-07 08:03:00,63.0,62.0,29.94,North,360,0.0,0.0,96,0.01,,,0.01,,2013-02-07 13:03:00,
2013-02-07 08:12:00,63.0,62.0,29.94,North,360,0.0,0.0,96,0.01,,,0.01,,2013-02-07 13:12:00,
2013-02-07 08:22:00,63.0,62.0,29.95,North,360,0.0,0.0,96,0.00,,,0.01,,2013-02-07 13:22:00,
2013-02-07 08:32:00,63.0,62.0,29.94,North,360,0.0,0.0,96,0.00,,,0.01,,2013-02-07 13:32:00,
2013-02-07 08:42:00,63.0,62.0,29.94,North,360,0.0,0.0,96,0.00,,,0.01,,2013-02-07 13:42:00,
2013-02-07 08:52:00,64.0,63.0,29.93,North,360,0.0,0.0,95,0.00,,,0.01,,2013-02-07 13:52:00,
2013-02-07 09:01:00,64.0,62.0,29.94,North,360,0.0,0.0,94,0.01,,,0.02,,2013-02-07 14:01:00,
2013-02-07 09:11:00,64.0,62.0,29.94,North,360,0.0,0.0,94,0.01,,,0.02,,2013-02-07 14:11:00,
2013-02-07 09:22:00,65.0,63.0,29.94,South,178,2.0,2.0,93,0.02,,,0.03,,2013-02-07 14:22:00,
2013-02-07 09:32:00,66.0,63.0,29.94,South,184,0.0,3.0,91,0.02,,,0.03,,2013-02-07 14:32:00,
2013-02-07 09:42:00,66.0,63.0,29.94,South,184,0.0,3.0,91,0.02,,,0.03,,2013-02-07 14:42:00,
2013-02-07 09:52:00,66.0,63.0,29.95,South,182,1.0,1.0,90,0.02,,,0.03,,2013-02-07 14:52:00,
2013-02-07 10:02:00,67.0,63.0,29.95,North,360,0.0,2.0,88,0.01,,,0.03,,2013-02-07 15:02:00,
2013-02-07 10:11:00,67.0,63.0,29.95,North,360,0.0,2.0,88,0.01,,,0.03,,2013-02-07 15:11:00,
2013-02-07 10:22:00,68.0,64.0,29.93,South,181,1.0,1.0,86,0.00,,,0.03,,2013-02-07 15:22:00,
2013-02-07 10:32:00,70.0,65.0,29.94,North,360,0.0,2.0,84,0.00,,,0.03,,2013-02-07 15:32:00,
2013-02-07 10:42:00,70.0,65.0,29.94,North,360,0.0,2.0,84,0.00,,,0.03,,2013-02-07 15:42:00,
2013-02-07 10:52:00,70.0,64.0,29.93,South,175,5.0,10.0,81,0.00,,,0.03,,2013-02-07 15:52:00,
2013-02-07 11:01:00,71.0,65.0,29.92,SSE,164,3.0,3.0,80,0.00,,,0.03,,2013-02-07 16:01:00,
2013-02-07 11:11:00,71.0,65.0,29.92,SSE,164,3.0,3.0,80,0.00,,,0.03,,2013-02-07 16:11:00,
2013-02-07 11:22:00,73.0,66.0,29.91,SSE,147,1.0,5.0,78,0.00,,,0.03,,2013-02-07 16:22:00,
2013-02-07 11:32:00,74.0,65.0,29.91,SSE,167,9.0,9.0,74,0.00,,,0.03,,2013-02-07 16:32:00,
2013-02-07 11:42:00,74.0,65.0,29.91,SSE,167,9.0,9.0,74,0.00,,,0.03,,2013-02-07 16:42:00,
2013-02-07 11:52:00,74.0,64.0,29.91,SSE,159,6.0,6.0,72,0.00,,,0.03,,2013-02-07 16:52:00,
2013-02-07 12:01:00,75.0,64.0,29.89,South,181,7.0,8.0,68,0.00,,,0.03,,2013-02-07 17:01:00,
2013-02-07 12:11:00,76.0,64.0,29.89,SSE,162,6.0,6.0,66,0.00,,,0.03,,2013-02-07 17:11:00,
2013-02-07 12:21:00,76.0,64.0,29.89,SSE,162,6.0,6.0,66,0.00,,,0.03,,2013-02-07 17:21:00,
2013-02-07 12:32:00,77.0,63.0,29.89,SSE,168,4.0,7.0,61,0.00,,,0.03,,2013-02-07 17:32:00,
2013-02-07 12:43:00,77.0,63.0,29.89,SSE,168,4.0,7.0,61,0.00,,,0.03,,2013-02-07 17:43:00,
2013-02-07 12:52:00,77.0,62.0,29.89,SSE,151,6.0,6.0,59,0.00,,,0.03,,2013-02-07 17:52:00,
2013-02-07 13:02:00,76.0,60.0,29.88,South,172,7.0,7.0,57,0.00,,,0.03,,2013-02-07 18:02:00,
2013-02-07 13:11:00,76.0,60.0,29.88,South,172,7.0,7.0,57,0.00,,,0.03,,2013-02-07 18:11:00,
2013-02-07 13:23:00,79.0,61.0,29.86,South,180,5.0,9.0,54,0.00,,,0.03,,2013-02-07 18:23:00,
2013-02-07 13:32:00,78.0,59.0,29.85,SSE,164,7.0,9.0,53,0.00,,,0.03,,2013-02-07 18:32:00,
2013-02-07 13:42:00,78.0,59.0,29.85,SSE,164,7.0,9.0,53,0.00,,,0.03,,2013-02-07 18:42:00,
2013-02-07 13:52:00,78.0,61.0,29.85,South,184,7.0,8.0,56,0.00,,,0.03,,2013-02-07 18:52:00,
2013-02-07 14:01:00,78.0,61.0,29.83,SSE,168,9.0,11.0,55,0.00,,,0.03,,2013-02-07 19:01:00,
2013-02-07 14:11:00,78.0,62.0,29.83,South,175,9.0,9.0,57,0.00,,,0.03,,2013-02-07 19:11:00,
2013-02-07 14:22:00,78.0,62.0,29.83,South,175,9.0,9.0,57,0.00,,,0.03,,2013-02-07 19:22:00,
2013-02-07 14:32:00,79.0,62.0,29.82,South,186,10.0,10.0,56,0.00,,,0.03,,2013-02-07 19:32:00,
2013-02-07 14:42:00,79.0,62.0,29.82,South,186,10.0,10.0,56,0.00,,,0.03,,2013-02-07 19:42:00,
2013-02-07 14:52:00,78.0,61.0,29.80,SSE,164,9.0,9.0,56,0.00,,,0.03,,2013-02-07 19:52:00,
2013-02-07 15:01:00,78.0,62.0,29.80,South,182,12.0,12.0,57,0.00,,,0.03,,2013-02-07 20:01:00,
2013-02-07 15:11:00,78.0,62.0,29.80,South,182,12.0,12.0,57,0.00,,,0.03,,2013-02-07 20:11:00,
2013-02-07 15:22:00,77.0,62.0,29.81,South,172,9.0,9.0,60,0.00,,,0.03,,2013-02-07 20:22:00,
2013-02-07 15:32:00,77.0,63.0,29.80,SSE,162,3.0,8.0,62,0.00,,,0.03,,2013-02-07 20:32:00,
2013-02-07 15:42:00,77.0,63.0,29.80,SSE,162,3.0,8.0,62,0.00,,,0.03,,2013-02-07 20:42:00,
2013-02-07 15:52:00,77.0,63.0,29.80,South,175,9.0,10.0,61,0.00,,,0.03,,2013-02-07 20:52:00,
2013-02-07 16:02:00,76.0,62.0,29.80,South,179,8.0,11.0,63,0.00,,,0.03,,2013-02-07 21:02:00,
2013-02-07 16:11:00,76.0,62.0,29.80,South,179,8.0,11.0,63,0.00,,,0.03,,2013-02-07 21:11:00,
2013-02-07 16:21:00,75.0,63.0,29.81,South,180,7.0,12.0,66,0.00,,,0.03,,2013-02-07 21:21:00,
2013-02-07 16:32:00,74.0,63.0,29.83,South,173,10.0,10.0,69,0.00,,,0.03,,2013-02-07 21:32:00,
2013-02-07 16:42:00,74.0,63.0,29.83,South,173,10.0,10.0,69,0.00,,,0.03,,2013-02-07 21:42:00,
2013-02-07 16:52:00,73.0,64.0,29.81,South,171,9.0,9.0,73,0.00,,,0.03,,2013-02-07 21:52:00,
2013-02-07 17:02:00,73.0,64.0,29.82,South,172,7.0,7.0,74,0.00,,,0.03,,2013-02-07 22:02:00,
2013-02-07 17:11:00,73.0,64.0,29.83,South,177,6.0,12.0,74,0.00,,,0.03,,2013-02-07 22:11:00,
2013-02-07 17:21:00,73.0,64.0,29.83,South,177,6.0,12.0,74,0.00,,,0.03,,2013-02-07 22:21:00,
2013-02-07 17:32:00,72.0,64.0,29.83,South,170,5.0,5.0,77,0.00,,,0.03,,2013-02-07 22:32:00,
2013-02-07 17:42:00,72.0,64.0,29.83,South,170,5.0,5.0,77,0.00,,,0.03,,2013-02-07 22:42:00,
2013-02-07 17:52:00,72.0,64.0,29.83,South,170,5.0,5.0,77,0.00,,,0.03,,2013-02-07 22:52:00,
2013-02-07 18:01:00,72.0,64.0,29.83,South,170,5.0,5.0,77,0.00,,,0.03,,2013-02-07 23:01:00,
2013-02-07 18:11:00,72.0,64.0,29.83,South,170,5.0,5.0,77,0.00,,,0.03,,2013-02-07 23:11:00,
2013-02-07 18:22:00,72.0,64.0,29.83,South,170,5.0,5.0,77,0.00,,,0.03,,2013-02-07 23:22:00,
2013-02-07 18:32:00,72.0,64.0,29.83,South,170,5.0,5.0,77,0.00,,,0.03,,2013-02-07 23:32:00,
2013-02-07 18:42:00,72.0,64.0,29.83,South,170,5.0,5.0,77,0.00,,,0.03,,2013-02-07 23:42:00,
2013-02-07 18:52:00,72.0,64.0,29.83,South,170,5.0,5.0,77,0.00,,,0.03,,2013-02-07 23:52:00,
2013-02-07 19:02:00,72.0,64.0,29.83,South,170,5.0,5.0,77,0.00,,,0.03,,2013-02-08 00:02:00,
2013-02-07 19:11:00,72.0,64.0,29.83,South,170,5.0,5.0,77,0.00,,,0.03,,2013-02-08 00:11:00,
2013-02-07 19:22:00,72.0,64.0,29.83,South,170,5.0,5.0,77,0.00,,,0.03,,2013-02-08 00:22:00,
2013-02-07 19:32:00,70.0,65.0,29.78,SSW,198,3.0,5.0,84,0.00,,,0.03,,2013-02-08 00:32:00,
2013-02-07 19:42:00,70.0,65.0,29.78,SSW,198,3.0,5.0,84,0.00,,,0.03,,2013-02-08 00:42:00,
2013-02-07 19:52:00,70.0,65.0,29.80,South,171,5.0,9.0,85,0.00,,,0.03,,2013-02-08 00:52:00,
2013-02-07 20:01:00,70.0,66.0,29.80,SSW,196,4.0,7.0,87,0.00,,,0.03,,2013-02-08 01:01:00,
2013-02-07 20:11:00,70.0,66.0,29.80,SSW,196,4.0,7.0,87,0.00,,,0.03,,2013-02-08 01:11:00,
2013-02-07 20:21:00,70.0,66.0,29.80,South,182,11.0,11.0,88,0.00,,,0.03,,2013-02-08 01:21:00,
2013-02-07 20:32:00,70.0,66.0,29.82,South,178,9.0,12.0,88,0.00,,,0.03,,2013-02-08 01:32:00,
2013-02-07 20:41:00,70.0,66.0,29.82,South,178,9.0,12.0,88,0.00,,,0.03,,2013-02-08 01:41:00,
2013-02-07 20:52:00,69.0,66.0,29.82,South,175,10.0,12.0,89,0.00,,,0.03,,2013-02-08 01:52:00,
2013-02-07 21:01:00,69.0,65.0,29.80,South,181,6.0,8.0,88,0.00,,,0.03,,2013-02-08 02:01:00,
2013-02-07 21:11:00,69.0,65.0,29.80,South,181,6.0,8.0,88,0.00,,,0.03,,2013-02-08 02:11:00,
2013-02-07 21:21:00,68.0,65.0,29.82,South,181,6.0,6.0,89,0.00,,,0.03,,2013-02-08 02:21:00,
2013-02-07 21:32:00,69.0,66.0,29.82,South,174,9.0,9.0,90,0.00,,,0.03,,2013-02-08 02:32:00,
2013-02-07 21:42:00,69.0,66.0,29.82,South,174,9.0,9.0,90,0.00,,,0.03,,2013-02-08 02:42:00,
2013-02-07 21:52:00,69.0,66.0,29.81,South,186,8.0,8.0,89,0.00,,,0.03,,2013-02-08 02:52:00,
2013-02-07 22:02:00,69.0,65.0,29.81,South,176,7.0,10.0,88,0.00,,,0.03,,2013-02-08 03:02:00,
2013-02-07 22:12:00,69.0,65.0,29.81,South,176,7.0,10.0,88,0.00,,,0.03,,2013-02-08 03:12:00,
2013-02-07 22:22:00,69.0,65.0,29.81,South,180,5.0,5.0,88,0.00,,,0.03,,2013-02-08 03:22:00,
2013-02-07 22:32:00,69.0,65.0,29.82,South,179,8.0,14.0,88,0.00,,,0.03,,2013-02-08 03:32:00,
2013-02-07 22:42:00,69.0,65.0,29.82,South,179,8.0,14.0,88,0.00,,,0.03,,2013-02-08 03:42:00,
2013-02-07 22:52:00,69.0,66.0,29.82,South,176,6.0,6.0,89,0.00,,,0.03,,2013-02-08 03:52:00,
2013-02-07 23:02:00,69.0,66.0,29.82,South,181,6.0,9.0,89,0.00,,,0.03,,2013-02-08 04:02:00,
2013-02-07 23:11:00,69.0,66.0,29.82,South,181,6.0,9.0,89,0.00,,,0.03,,2013-02-08 04:11:00,
2013-02-07 23:21:00,70.0,66.0,29.81,South,180,9.0,10.0,88,0.00,,,0.03,,2013-02-08 04:21:00,
2013-02-07 23:32:00,70.0,66.0,29.81,South,172,9.0,9.0,88,0.00,,,0.03,,2013-02-08 04:32:00,
2013-02-07 23:42:00,70.0,66.0,29.81,South,172,9.0,9.0,88,0.00,,,0.03,,2013-02-08 04:42:00,
2013-02-07 23:52:00,70.0,66.0,29.81,South,175,8.0,8.0,88,0.00,,,0.03,,2013-02-08 04:52:00,